Weather History for Bar Harbor, ME

Change the Weather History Date:

Sunday, February 3, 2013

  Actual Average Record
Temperature  
Mean Temperature 24 °F -  
Max Temperature 30 °F 30 °F 52 °F (1973)
Min Temperature 19 °F 14 °F -12 °F (1971)
Degree Days  
Heating Degree Days 40    
Moisture  
Dew Point 19 °F    
Average Humidity 84    
Maximum Humidity 100    
Minimum Humidity 69    
Precipitation  
Precipitation 0.01 in - - ()
Sea Level Pressure  
Sea Level Pressure 29.89 in    
Wind  
Wind Speed 7 mph (NNE)    
Max Wind Speed 16 mph    
Max Gust Speed 21 mph    
Visibility 8 miles    
Events      
Averages and records for this station are not official NWS values.
T = Trace of Precipitation, MM = Missing Value Source: NWS Daily Summary

Daily Weather History Graph

Daily Weather History Graph

Search for Another Location

Airport:

Trip Planner

Search our weather history database for the weather conditions in past years. The results will help you decide how hot, cold, wet, or windy it might be!

Date:

Astronomy

Feb. 03, 2013 Rise Set
Actual Time 6:49 AM EST 4:45 PM EST
Civil Twilight 6:18 AM EST 5:16 PM EST
Nautical Twilight 5:43 AM EST 5:51 PM EST
Astronomical Twilight 5:09 AM EST 6:25 PM EST
Moon 12:13 AM EST (2/3) 10:19 AM EST (2/3)
Length of Visible Light 10h 58m
Length of Day
9h 56m
Waning Gibbous, 49% of the Moon is Illuminated
Feb 3
Waning Gibbous
Feb 10
New
Feb 17
First Quarter
Feb 25
Full
Mar 4
Last Quarter

Hourly Weather History & Observations

Time (EST) Temp. Windchill Dew Point Humidity Pressure Visibility Wind Dir Wind Speed Gust Speed Precip Events Conditions
12:15 AM 21.2 °F 16.4 °F 19.4 °F 93% 30.06 in 5.0 mi North 3.5 mph - N/A   Overcast
12:35 AM 21.2 °F 16.4 °F 19.4 °F 93% 30.06 in 4.0 mi North 3.5 mph - N/A   Mostly Cloudy
12:55 AM 21.2 °F 14.9 °F 19.4 °F 93% 30.06 in 5.0 mi North 4.6 mph - N/A   Overcast
1:15 AM 21.2 °F 16.4 °F 19.4 °F 93% 30.06 in 1.8 mi North 3.5 mph - N/A   Overcast
1:35 AM 21.2 °F 16.4 °F 19.4 °F 93% 30.06 in 1.8 mi North 3.5 mph - N/A   Overcast
1:55 AM 21.2 °F 14.9 °F 19.4 °F 93% 30.06 in 2.0 mi NNE 4.6 mph - N/A   Overcast
2:15 AM 21.2 °F 14.9 °F 19.4 °F 93% 30.06 in 1.2 mi NNE 4.6 mph - N/A   Overcast
2:35 AM 21.2 °F 14.9 °F 19.4 °F 93% 30.06 in 1.5 mi North 4.6 mph - N/A   Overcast
2:55 AM 21.2 °F 16.4 °F 19.4 °F 93% 30.05 in 1.8 mi North 3.5 mph - N/A   Overcast
3:15 AM 21.2 °F 16.4 °F 19.4 °F 93% 30.05 in 1.5 mi NNE 3.5 mph - 0.01 in   Overcast
3:35 AM 21.2 °F 14.9 °F 19.4 °F 93% 30.05 in 1.8 mi NNE 4.6 mph - 0.01 in   Overcast
3:55 AM 21.2 °F 13.6 °F 21.2 °F 100% 30.05 in 1.5 mi NNE 5.8 mph - 0.01 in   Overcast
4:15 AM 21.2 °F 13.6 °F 21.2 °F 100% 30.04 in 1.8 mi NNE 5.8 mph - N/A   Overcast
4:35 AM 21.2 °F 14.9 °F 21.2 °F 100% 30.04 in 2.0 mi NNE 4.6 mph - N/A   Overcast
4:55 AM 21.2 °F 13.6 °F 19.4 °F 93% 30.03 in 2.0 mi NNE 5.8 mph - N/A   Overcast
5:15 AM 21.2 °F 14.9 °F 19.4 °F 93% 30.03 in 2.0 mi NE 4.6 mph - N/A   Overcast
5:35 AM 21.2 °F 14.9 °F 19.4 °F 93% 30.03 in 2.0 mi NNE 4.6 mph - N/A   Overcast
5:55 AM 21.2 °F 14.9 °F 19.4 °F 93% 30.02 in 3.0 mi NNE 4.6 mph - N/A   Overcast
6:35 AM 21.2 °F 12.6 °F 19.4 °F 93% 30.02 in 4.0 mi North 6.9 mph - N/A   Overcast
6:55 AM 19.4 °F 10.4 °F 17.6 °F 93% 30.01 in 5.0 mi North 6.9 mph - N/A   Overcast
7:15 AM 19.4 °F 9.5 °F 19.4 °F 100% 30.01 in 7.0 mi North 8.1 mph - N/A   Overcast
7:35 AM 19.4 °F 9.5 °F 19.4 °F 100% 30.00 in 10.0 mi North 8.1 mph - N/A   Overcast
7:55 AM 19.4 °F 9.5 °F 19.4 °F 100% 30.00 in 10.0 mi North 8.1 mph - N/A   Overcast
8:15 AM 21.2 °F 11.7 °F 19.4 °F 93% 29.99 in 10.0 mi North 8.1 mph - N/A   Mostly Cloudy
8:35 AM 21.2 °F 11.7 °F 19.4 °F 93% 29.98 in 10.0 mi NNE 8.1 mph - N/A   Mostly Cloudy
8:55 AM 21.2 °F 10.1 °F 19.4 °F 93% 29.98 in 10.0 mi North 10.4 mph - N/A   Partly Cloudy
9:15 AM 23.0 °F 13.1 °F 19.4 °F 86% 29.98 in 10.0 mi NNE 9.2 mph - N/A   Clear
9:35 AM 23.0 °F 12.4 °F 19.4 °F 86% 29.98 in 10.0 mi NNE 10.4 mph - N/A   Scattered Clouds
10:15 AM 26.6 °F 16.8 °F 19.4 °F 74% 29.96 in 10.0 mi NNE 10.4 mph - N/A   Partly Cloudy
10:35 AM 28.4 °F 19.7 °F 19.4 °F 69% 29.97 in 10.0 mi NNE 9.2 mph - N/A   Mostly Cloudy
10:55 AM 26.6 °F 16.8 °F 19.4 °F 74% 29.96 in 10.0 mi NE 10.4 mph - N/A   Overcast
11:15 AM 26.6 °F 17.5 °F 19.4 °F 74% 29.93 in 10.0 mi North 9.2 mph - N/A   Mostly Cloudy
11:35 AM 28.4 °F 19.7 °F 19.4 °F 69% 29.91 in 10.0 mi NNE 9.2 mph 17.3 mph N/A   Partly Cloudy
11:55 AM 28.4 °F 19.7 °F 21.2 °F 74% 29.89 in 10.0 mi North 9.2 mph 17.3 mph N/A   Clear
12:15 PM 28.4 °F 19.1 °F 21.2 °F 74% 29.89 in 10.0 mi North 10.4 mph - N/A   Clear
12:35 PM 30.2 °F 20.8 °F 21.2 °F 69% 29.87 in 10.0 mi North 11.5 mph - N/A   Clear
12:55 PM 30.2 °F 20.8 °F 21.2 °F 69% 29.85 in 10.0 mi North 11.5 mph 17.3 mph N/A   Clear
1:15 PM 28.4 °F 17.0 °F 21.2 °F 74% 29.84 in 10.0 mi North 15.0 mph - N/A   Clear
1:35 PM 30.2 °F 19.8 °F 21.2 °F 69% 29.83 in 10.0 mi NNE 13.8 mph 19.6 mph N/A   Clear
1:55 PM 30.2 °F 20.2 °F 21.2 °F 69% 29.82 in 10.0 mi NE 12.7 mph - N/A   Clear
2:15 PM 30.2 °F 20.2 °F 21.2 °F 69% 29.81 in 10.0 mi NNE 12.7 mph 18.4 mph N/A   Clear
2:35 PM 30.2 °F 19.3 °F 21.2 °F 69% 29.82 in 10.0 mi NE 15.0 mph - N/A   Clear
2:55 PM 30.2 °F 21.3 °F 21.2 °F 69% 29.81 in 10.0 mi NNE 10.4 mph - N/A   Clear
3:15 PM 28.4 °F 17.5 °F 21.2 °F 74% 29.81 in 10.0 mi NNE 13.8 mph 17.3 mph N/A   Mostly Cloudy
3:35 PM 28.4 °F 18.0 °F 19.4 °F 69% 29.80 in 10.0 mi North 12.7 mph 16.1 mph N/A   Mostly Cloudy
3:55 PM 26.6 °F 14.3 °F 19.4 °F 74% 29.79 in 10.0 mi NNE 16.1 mph - N/A   Clear
4:15 PM 26.6 °F 17.5 °F 19.4 °F 74% 29.79 in 10.0 mi North 9.2 mph - N/A   Mostly Cloudy
4:35 PM 26.6 °F 18.2 °F 19.4 °F 74% 29.79 in 10.0 mi North 8.1 mph - N/A   Overcast
4:55 PM 26.6 °F 15.7 °F 19.4 °F 74% 29.78 in 10.0 mi North 12.7 mph - N/A   Overcast
5:15 PM 24.8 °F 14.6 °F 19.4 °F 80% 29.78 in 10.0 mi North 10.4 mph - N/A   Overcast
5:35 PM 24.8 °F 13.4 °F 19.4 °F 80% 29.77 in 10.0 mi North 12.7 mph - N/A   Overcast
5:55 PM 24.8 °F 12.9 °F 19.4 °F 80% 29.77 in 10.0 mi NNE 13.8 mph - N/A   Overcast
6:15 PM 24.8 °F 13.4 °F 19.4 °F 80% 29.76 in 10.0 mi NNE 12.7 mph 16.1 mph N/A   Overcast
6:35 PM 23.0 °F 10.1 °F 17.6 °F 80% 29.75 in 10.0 mi North 15.0 mph 20.7 mph N/A   Overcast
6:55 PM 23.0 °F 10.1 °F 17.6 °F 80% 29.75 in 10.0 mi NNE 15.0 mph - N/A   Overcast
7:15 PM 21.2 °F 7.3 °F 17.6 °F 86% 29.74 in 10.0 mi NNE 16.1 mph - N/A   Overcast
7:55 PM 21.2 °F 8.9 °F 17.6 °F 86% 29.74 in 10.0 mi NNE 12.7 mph - N/A   Overcast
8:15 PM 21.2 °F 11.7 °F 17.6 °F 86% 29.75 in 10.0 mi North 8.1 mph 18.4 mph N/A   Overcast
8:35 PM 21.2 °F 10.9 °F 17.6 °F 86% 29.74 in 10.0 mi North 9.2 mph - N/A   Overcast
8:55 PM 21.2 °F 12.6 °F 17.6 °F 86% 29.73 in 10.0 mi North 6.9 mph - N/A   Overcast
9:15 PM 21.2 °F 11.7 °F 17.6 °F 86% 29.73 in 10.0 mi North 8.1 mph - N/A   Overcast
9:35 PM 21.2 °F 11.7 °F 17.6 °F 86% 29.71 in 10.0 mi North 8.1 mph - N/A   Overcast
9:55 PM 21.2 °F 13.6 °F 17.6 °F 86% 29.70 in 10.0 mi North 5.8 mph - N/A   Overcast
10:15 PM 21.2 °F 12.6 °F 17.6 °F 86% 29.69 in 10.0 mi NNW 6.9 mph - N/A   Overcast
10:35 PM 21.2 °F 11.7 °F 15.8 °F 80% 29.66 in 10.0 mi North 8.1 mph - N/A   Overcast
10:55 PM 19.4 °F 10.4 °F 17.6 °F 93% 29.65 in 10.0 mi North 6.9 mph 16.1 mph N/A   Overcast
11:15 PM 19.4 °F 8.6 °F 17.6 °F 93% 29.66 in 10.0 mi North 9.2 mph - N/A   Overcast
11:35 PM 21.2 °F 12.6 °F 15.8 °F 80% 29.65 in 10.0 mi North 6.9 mph - N/A   Overcast
11:55 PM 21.2 °F 10.9 °F 15.8 °F 80% 29.64 in 10.0 mi North 9.2 mph - N/A   Overcast